Wind_Speed
18 18 19 19 20 21 21 22 22 21 21 21 24 25 25 26 26 27 27 28 29 30 31 32 32 33 34 35 36 36 37 38 39 40 42 43 45 46 47 48 49 50 51 52
21 22 22 22 22 23 23 24 24 24 23 24 26 26 27 27 27 28 28 29 30 31 32 32 33 34 35 36 37 37 38 40 41 42 43 45 47 48 48 49 51 52 53 54
25 25 26 25 24 26 26 26 27 27 27 27 28 28 28 29 29 29 30 30 31 32 33 33 34 35 37 38 39 39 40 41 43 44 45 47 48 49 50 51 52 54 55 56
28 28 29 27 27 28 28 28 29 29 29 30 30 30 30 30 31 31 31 32 33 33 34 35 35 37 38 39 40 41 42 43 45 46 48 49 50 51 52 53 54 55 56 57
31 31 31 30 29 30 30 30 30 31 31 32 31 31 31 31 32 32 33 34 34 35 36 36 37 38 39 40 42 43 44 45 46 47 49 49 50 52 53 54 55 56 57 57
34 35 34 32 32 32 33 33 32 32 33 33 32 32 33 33 34 34 35 35 36 37 37 38 39 40 41 42 43 45 46 47 48 49 50 51 52 53 54 55 55 56 57 58
36 37 37 35 34 34 35 35 34 34 34 34 34 34 34 35 35 36 37 37 38 39 40 41 42 42 43 44 46 47 48 49 50 50 51 52 53 54 55 56 57 58 58 59
37 38 38 37 37 37 37 37 36 36 36 36 36 36 36 36 37 38 39 40 41 42 42 43 44 45 46 47 48 49 49 50 50 51 52 53 54 55 56 57 58 58 58 58
39 39 39 39 39 39 39 39 39 38 39 39 39 39 39 40 40 41 42 42 43 44 45 46 47 48 48 49 49 50 50 50 51 52 53 54 55 56 56 57 57 57 57 58
41 39 40 41 41 41 41 41 41 41 41 41 41 41 42 42 43 43 44 45 46 47 48 48 49 49 49 50 50 50 50 51 52 53 54 55 55 55 56 56 57 57 57 57
42 41 42 42 43 43 43 43 43 43 43 43 43 43 43 44 44 45 46 47 48 48 48 49 49 49 49 50 50 51 52 52 53 54 54 54 54 55 55 56 56 56 56 56
43 43 44 44 44 45 45 45 45 45 45 45 45 45 45 45 45 46 46 47 47 47 48 48 48 49 49 50 51 52 52 53 53 53 53 54 54 54 54 55 55 56 56 55
45 45 45 45 45 45 46 46 46 46 46 45 45 45 45 45 45 46 46 46 47 48 48 48 49 49 50 51 51 52 52 53 53 53 54 55 55 55 54 54 53 53 54 53
45 46 45 45 45 45 45 45 45 45 45 44 44 44 44 44 45 45 46 46 47 47 48 48 49 50 51 51 52 52 52 53 53 54 54 54 55 54 53 52 51 50 51 51
45 45 45 44 44 44 44 44 44 44 43 44 44 44 44 44 44 45 45 46 46 46 47 48 49 50 51 51 52 52 52 53 53 53 53 53 53 53 52 51 51 50 49 48
46 45 45 45 44 44 44 44 43 43 43 43 43 44 44 44 44 44 45 46 46 47 47 49 49 50 50 51 51 51 51 51 51 52 52 52 51 50 50 49 49 48 47 46
45 44 45 44 44 43 43 42 43 43 43 42 42 43 43 44 44 45 45 46 46 47 48 48 49 49 49 50 50 50 50 49 49 50 50 50 49 48 48 48 47 46 45 44
43 43 43 42 42 42 42 42 42 41 41 41 42 43 43 44 44 45 45 46 46 46 47 48 48 48 48 49 48 48 48 48 48 48 48 47 46 46 46 46 45 44 43 42
41 41 41 40 40 40 39 39 40 40 40 41 41 42 42 43 43 44 44 45 45 46 46 47 47 47 47 47 47 47 47 47 47 46 46 45 45 45 44 44 43 42 41 40
39 38 38 38 38 38 38 38 39 39 40 40 40 41 41 42 43 44 45 45 46 46 46 46 46 45 45 45 45 45 45 45 45 45 44 43 43 43 42 42 41 40 39 38
36 36 37 37 37 37 37 38 39 39 40 40 40 41 41 42 43 44 45 45 45 45 45 45 44 44 44 44 44 44 43 44 44 43 43 42 42 41 40 39 39 38 37 36
34 35 36 37 37 37 37 38 38 39 39 40 40 40 41 42 43 43 44 44 44 43 43 43 43 43 43 43 43 42 42 42 42 42 42 41 40 39 38 37 36 35 34 33
34 34 35 36 36 37 37 38 38 39 39 39 39 40 41 42 42 42 42 42 42 42 42 41 41 42 42 42 42 41 41 41 41 41 40 39 37 36 35 34 33 32 31 29
34 35 36 37 38 38 39 39 39 39 40 40 40 41 42 42 41 41 41 40 41 41 41 41 42 42 43 42 41 41 41 41 40 40 38 37 36 34 33 32 30 29 28 27
37 38 38 39 39 40 40 40 40 41 41 41 41 41 42 42 42 42 42 42 42 42 42 42 43 43 42 42 42 41 41 40 39 38 36 34 33 32 31 29 28 27 26 25
38 38 39 39 40 41 41 42 42 42 42 42 41 42 42 42 43 43 43 43 43 44 44 43 43 43 42 42 41 40 39 37 36 34 32 31 30 29 28 28 26 25 23 22
40 40 41 41 42 42 43 43 42 42 42 42 41 41 42 42 43 43 43 43 43 42 42 42 42 41 41 40 38 36 35 33 31 30 29 29 28 27 27 25 24 22 21 21
Wind_Direction
276 276 276 276 277 277 277 277 278 279 279 278 277 277 276 275 273 272 272 274 274 274 275 275 276 276 277 278 278 279 279 278 278 279 279 281 282 283 283 284 284 284 286 287
274 275 276 276 277 278 278 278 279 278 279 279 279 279 278 277 276 274 273 274 274 275 276 276 277 278 279 279 279 280 280 279 279 279 280 282 283 283 284 284 285 286 287 288
276 275 276 276 277 277 278 278 278 278 277 276 278 279 279 278 277 276 276 277 276 276 277 278 278 279 280 280 280 280 281 280 281 282 282 284 285 285 286 287 288 289 288 289
278 277 276 279 278 278 279 278 278 277 277 276 277 278 279 278 278 278 278 278 278 278 278 279 280 280 281 281 282 282 282 282 282 283 284 285 286 287 288 288 289 289 289 289
279 278 278 279 279 278 278 278 278 278 277 277 278 278 278 278 278 278 278 278 279 280 280 280 281 282 282 283 283 284 285 285 285 285 286 287 288 288 289 289 290 290 290 291
278 278 279 280 279 279 279 278 278 279 279 278 278 277 277 277 278 278 279 279 280 280 281 281 282 283 284 284 285 286 287 287 287 288 288 288 289 289 290 290 291 291 291 292
278 278 278 279 279 279 279 280 279 279 280 279 279 278 278 278 278 278 278 279 280 280 282 283 283 284 285 286 287 287 288 288 288 289 289 289 289 290 291 291 292 292 291 292
277 277 278 278 278 277 278 278 279 279 279 279 279 278 278 278 278 278 279 280 280 281 282 284 284 285 286 287 287 288 288 288 288 289 289 290 290 291 291 292 292 292 292 292
276 277 277 277 276 277 277 278 278 278 278 279 279 279 279 278 279 279 280 280 281 282 283 285 286 286 287 288 288 289 289 289 289 289 290 291 291 292 292 292 292 292 293 293
275 275 275 275 276 276 277 277 278 278 278 278 279 280 280 279 279 280 281 281 282 284 285 286 287 287 288 288 289 289 290 290 290 291 291 291 292 292 293 293 293 293 294 294
274 275 274 275 275 276 277 277 277 278 279 279 280 280 280 280 280 281 282 282 283 285 286 287 287 288 288 289 289 290 290 291 292 292 292 292 292 293 293 293 294 294 295 295
273 273 274 274 274 275 276 277 278 279 279 280 280 280 280 281 282 282 283 284 284 285 286 287 288 288 289 289 290 291 291 292 292 292 293 293 294 294 294 294 294 295 296 296
273 273 274 274 274 275 276 277 278 279 280 281 281 281 281 281 282 283 283 284 285 286 287 288 288 289 289 290 291 291 292 292 292 293 294 295 295 295 295 294 294 295 295 296
272 273 274 275 275 276 277 278 279 279 280 280 280 280 280 281 282 283 284 285 286 286 287 288 288 289 290 291 292 292 292 293 293 294 295 295 295 295 295 296 295 295 295 296
273 273 274 274 275 275 277 278 279 279 279 279 280 280 281 282 282 283 284 285 286 287 288 289 290 291 291 292 292 293 293 294 294 294 295 295 296 295 296 296 296 296 296 296
272 274 274 274 275 276 277 278 279 279 280 280 280 280 281 282 283 284 285 286 287 288 289 290 291 291 292 292 293 293 294 294 294 295 296 296 296 296 296 296 296 297 297 297
273 274 274 274 274 275 276 277 278 279 281 281 281 281 281 282 283 284 285 286 287 288 289 290 291 292 293 293 294 294 294 294 295 296 297 297 296 296 296 297 297 298 298 298
273 273 273 274 274 274 275 276 278 279 280 281 282 282 282 283 284 285 285 286 288 289 291 292 293 294 294 294 294 294 294 295 296 296 297 297 297 297 297 297 298 298 298 298
274 274 274 274 274 275 277 278 279 280 281 282 282 283 284 284 284 285 286 287 289 290 292 293 293 294 294 294 294 294 295 296 296 297 297 297 297 298 299 299 299 300 299 298
274 274 274 274 275 277 278 279 279 280 282 283 284 284 285 285 286 286 287 288 290 291 292 293 293 294 295 295 295 295 296 296 297 298 298 298 298 299 299 300 300 300 299 298
273 274 274 274 276 277 278 279 280 281 283 284 285 286 286 286 287 287 288 288 289 291 292 292 292 293 295 295 295 295 296 297 298 298 298 298 299 300 300 300 300 299 299 298
275 275 276 276 277 278 279 280 281 283 285 285 286 286 287 287 288 288 288 289 290 291 292 292 292 293 294 295 295 295 295 297 298 298 299 299 299 299 299 300 300 299 298 297
276 277 277 277 278 278 279 280 282 283 285 285 286 286 287 288 289 289 289 290 291 292 293 292 292 293 294 295 295 295 295 296 297 298 299 299 300 300 300 300 299 299 298 297
277 278 278 279 279 280 280 281 282 283 284 285 286 287 287 288 288 289 290 290 290 291 292 292 293 293 294 295 294 294 295 295 296 298 298 298 298 299 299 299 298 298 297 296
276 277 278 279 280 280 281 282 282 283 284 285 286 286 286 287 288 289 290 290 290 291 292 293 294 294 293 293 294 294 295 295 295 296 296 296 296 297 297 297 297 296 296 295
278 278 278 279 280 281 282 282 282 282 283 284 284 284 285 286 287 288 289 289 290 291 292 293 293 293 293 293 293 293 294 294 294 294 294 294 295 296 296 295 295 294 294 293
279 280 281 281 282 282 282 281 281 282 282 282 283 283 284 285 287 288 289 290 291 292 292 293 294 294 293 293 293 293 293 293 293 292 293 293 294 294 294 293 292 292 291 291
Height
5707 5706 5705 5705 5704 5703 5702 5701 5700 5700 5699 5698 5695 5694 5693 5691 5690 5689 5688 5687 5686 5685 5683 5682 5681 5679 5678 5676 5674 5673 5671 5669 5668 5666 5664 5661 5659 5656 5654 5651 5648 5645 5642 5639
5702 5701 5699 5699 5699 5697 5696 5695 5694 5693 5692 5691 5688 5687 5685 5684 5683 5682 5681 5679 5678 5677 5675 5673 5672 5670 5668 5667 5665 5663 5661 5659 5657 5654 5652 5650 5647 5644 5641 5638 5635 5632 5628 5624
5695 5694 5693 5693 5693 5691 5689 5688 5687 5685 5686 5683 5681 5680 5678 5677 5675 5674 5673 5671 5670 5668 5666 5664 5662 5661 5659 5656 5654 5652 5650 5648 5645 5643 5640 5637 5634 5631 5628 5624 5621 5617 5613 5609
5686 5687 5685 5688 5684 5683 5681 5680 5678 5677 5676 5675 5673 5672 5670 5669 5667 5666 5664 5662 5660 5659 5657 5655 5653 5651 5648 5646 5643 5641 5638 5636 5633 5631 5628 5624 5621 5617 5613 5610 5606 5602 5597 5593
5678 5676 5676 5678 5676 5674 5672 5671 5670 5668 5667 5665 5664 5663 5661 5660 5658 5657 5655 5653 5651 5649 5647 5645 5642 5640 5637 5635 5632 5629 5626 5624 5620 5617 5614 5610 5607 5603 5599 5595 5591 5586 5582 5577
5668 5667 5667 5669 5667 5664 5664 5662 5661 5659 5657 5656 5655 5654 5653 5650 5649 5647 5645 5643 5641 5639 5636 5634 5631 5629 5626 5623 5620 5617 5614 5611 5607 5603 5600 5596 5592 5588 5583 5579 5575 5570 5566 5561
5658 5656 5657 5658 5656 5654 5654 5653 5651 5649 5647 5646 5645 5644 5642 5640 5638 5636 5634 5632 5630 5628 5625 5623 5620 5617 5614 5611 5608 5604 5601 5597 5593 5589 5585 5581 5577 5573 5568 5564 5559 5555 5550 5545
5648 5646 5648 5646 5645 5644 5643 5641 5639 5638 5636 5635 5634 5632 5631 5629 5627 5625 5623 5621 5618 5616 5613 5611 5608 5605 5602 5598 5595 5591 5587 5583 5579 5575 5571 5566 5562 5557 5552 5547 5543 5538 5533 5529
5637 5638 5635 5633 5632 5631 5630 5629 5628 5626 5625 5624 5622 5621 5619 5617 5615 5613 5611 5609 5606 5603 5601 5598 5595 5591 5588 5584 5581 5577 5573 5569 5565 5560 5556 5551 5546 5542 5537 5531 5526 5521 5517 5512
5625 5625 5623 5621 5620 5619 5618 5617 5615 5614 5613 5611 5610 5608 5607 5605 5603 5601 5598 5596 5593 5590 5587 5584 5581 5577 5574 5570 5566 5563 5559 5554 5550 5545 5541 5536 5531 5526 5521 5515 5510 5505 5500 5495
5612 5613 5610 5609 5607 5606 5605 5603 5602 5601 5599 5598 5597 5595 5593 5591 5589 5587 5584 5582 5579 5576 5573 5570 5566 5563 5559 5556 5552 5548 5544 5540 5535 5530 5525 5521 5516 5511 5505 5500 5493 5488 5484 5478
5599 5599 5597 5597 5595 5593 5591 5590 5589 5587 5586 5585 5583 5581 5579 5577 5575 5573 5570 5568 5565 5562 5559 5555 5552 5548 5545 5541 5537 5533 5529 5524 5519 5515 5510 5505 5500 5496 5490 5484 5478 5472 5466 5461
5584 5584 5582 5582 5581 5579 5578 5577 5575 5574 5572 5571 5569 5567 5565 5563 5561 5559 5556 5553 5551 5548 5545 5541 5538 5534 5530 5526 5522 5518 5513 5509 5504 5499 5494 5489 5484 5479 5475 5470 5464 5457 5451 5446
5569 5569 5568 5567 5567 5566 5564 5563 5562 5560 5559 5557 5555 5553 5551 5549 5547 5545 5542 5539 5536 5534 5530 5527 5523 5519 5515 5511 5507 5502 5498 5493 5488 5483 5478 5473 5468 5463 5458 5453 5449 5444 5438 5432
5555 5554 5554 5554 5553 5552 5551 5549 5548 5547 5545 5543 5541 5539 5538 5536 5533 5531 5528 5525 5522 5519 5516 5512 5508 5504 5500 5496 5491 5487 5482 5478 5473 5468 5463 5457 5452 5447 5442 5438 5433 5429 5424 5419
5541 5541 5540 5540 5539 5538 5537 5536 5535 5533 5532 5530 5528 5526 5524 5522 5520 5517 5514 5511 5508 5505 5501 5497 5494 5489 5485 5481 5476 5472 5467 5462 5457 5452 5448 5442 5437 5432 5428 5423 5418 5414 5410 5405
5527 5527 5526 5526 5525 5524 5523 5522 5521 5520 5518 5516 5515 5513 5510 5508 5506 5503 5500 5497 5494 5491 5487 5483 5479 5475 5470 5466 5461 5457 5452 5448 5443 5438 5433 5428 5423 5418 5414 5409 5405 5400 5396 5391
5513 5513 5513 5512 5512 5511 5510 5509 5508 5506 5505 5503 5501 5499 5497 5494 5491 5489 5486 5483 5480 5476 5473 5468 5464 5460 5456 5451 5446 5442 5438 5434 5429 5424 5419 5414 5410 5405 5400 5396 5391 5387 5383 5379
5499 5499 5499 5499 5498 5497 5496 5495 5494 5493 5491 5489 5487 5485 5483 5480 5477 5475 5472 5469 5466 5462 5459 5454 5450 5446 5442 5437 5432 5428 5424 5420 5415 5411 5406 5401 5397 5392 5387 5383 5379 5375 5370 5367
5487 5486 5486 5486 5485 5485 5484 5483 5481 5480 5478 5476 5474 5472 5469 5467 5464 5461 5458 5455 5451 5447 5444 5441 5436 5432 5428 5424 5419 5415 5411 5406 5402 5398 5393 5389 5384 5380 5376 5371 5367 5363 5359 5355
5475 5474 5474 5473 5473 5472 5471 5469 5468 5467 5465 5463 5461 5458 5456 5453 5450 5447 5444 5441 5438 5434 5430 5426 5422 5419 5415 5410 5406 5402 5398 5394 5389 5385 5381 5376 5372 5368 5364 5360 5356 5352 5348 5344
5463 5462 5462 5461 5460 5459 5458 5457 5455 5453 5452 5450 5447 5445 5442 5440 5437 5433 5430 5427 5424 5420 5416 5413 5409 5405 5401 5397 5393 5389 5385 5381 5377 5373 5369 5365 5361 5357 5353 5349 5345 5341 5338 5334
5452 5451 5450 5449 5448 5447 5446 5444 5442 5441 5439 5436 5434 5431 5428 5426 5422 5420 5417 5414 5410 5407 5403 5400 5396 5392 5388 5384 5381 5377 5373 5369 5365 5361 5357 5353 5349 5346 5342 5338 5335 5331 5328 5325
5440 5439 5438 5436 5435 5434 5433 5432 5429 5427 5425 5423 5421 5418 5415 5412 5410 5406 5403 5401 5397 5394 5390 5387 5383 5379 5375 5371 5368 5364 5361 5357 5353 5349 5346 5342 5339 5335 5332 5328 5325 5322 5319 5317
5428 5427 5425 5424 5422 5421 5419 5418 5416 5414 5412 5410 5407 5404 5401 5398 5396 5394 5391 5388 5384 5381 5377 5374 5370 5366 5362 5358 5355 5352 5348 5345 5341 5338 5334 5331 5328 5325 5322 5319 5316 5314 5311 5309
5415 5413 5412 5410 5409 5407 5405 5404 5402 5400 5398 5396 5394 5391 5388 5385 5383 5380 5377 5374 5371 5367 5364 5360 5356 5352 5349 5345 5342 5339 5336 5333 5329 5326 5324 5321 5318 5316 5313 5310 5308 5306 5304 5302
5402 5400 5398 5397 5395 5393 5392 5390 5388 5386 5384 5382 5380 5378 5375 5372 5369 5366 5363 5360 5357 5354 5350 5347 5343 5339 5336 5332 5329 5326 5324 5321 5319 5316 5314 5312 5309 5307 5304 5302 5300 5298 5296 5295